Temp
-19 -19 -22 -22 -23 -24 -27 -28 -29 -31 -31 -31 -31 -31 -29 -30 -31 -30 -30 -30 -30 -30 -30 -30 -29 -28 -29 -28 -27 -25 -24 -23 -21 -20 -18 -18 -18 -17 -16 -16 -16 -15 -15 -14
-19 -20 -21 -22 -25 -27 -28 -30 -31 -32 -32 -32 -32 -31 -31 -31 -31 -31 -31 -30 -30 -31 -30 -30 -30 -30 -29 -29 -29 -27 -26 -24 -23 -21 -20 -18 -18 -17 -17 -16 -16 -15 -15 -15
-20 -21 -21 -23 -25 -27 -30 -31 -32 -32 -32 -32 -32 -31 -31 -31 -31 -31 -31 -31 -31 -31 -31 -31 -30 -30 -30 -29 -29 -29 -28 -27 -25 -24 -22 -20 -18 -18 -17 -17 -16 -16 -15 -15
-19 -20 -22 -24 -27 -30 -32 -33 -33 -33 -33 -33 -32 -32 -31 -31 -31 -31 -31 -31 -31 -31 -30 -30 -30 -30 -29 -29 -29 -29 -29 -29 -28 -27 -24 -22 -20 -18 -18 -17 -16 -16 -16 -15
-20 -22 -23 -26 -30 -33 -33 -34 -34 -34 -33 -33 -32 -32 -31 -32 -32 -32 -32 -31 -31 -30 -30 -30 -30 -29 -29 -29 -29 -29 -28 -28 -28 -28 -27 -25 -22 -19 -18 -17 -17 -16 -16 -16
-20 -23 -27 -30 -32 -33 -34 -34 -34 -34 -33 -33 -32 -32 -31 -32 -32 -32 -32 -31 -31 -30 -30 -30 -29 -29 -29 -29 -28 -28 -28 -28 -28 -28 -28 -27 -24 -21 -19 -18 -17 -17 -16 -16
-20 -22 -26 -31 -33 -33 -34 -34 -34 -34 -34 -33 -33 -32 -32 -32 -32 -32 -32 -31 -31 -31 -30 -29 -29 -29 -28 -29 -29 -29 -28 -28 -28 -28 -28 -28 -27 -25 -22 -19 -18 -17 -16 -16
-22 -23 -27 -31 -34 -35 -35 -35 -35 -34 -34 -33 -33 -32 -32 -32 -32 -32 -31 -31 -30 -30 -29 -29 -28 -28 -28 -28 -28 -29 -29 -29 -28 -28 -27 -28 -28 -27 -25 -21 -19 -17 -17 -16
-23 -24 -28 -33 -34 -35 -35 -35 -35 -34 -34 -34 -33 -32 -33 -33 -32 -32 -31 -31 -30 -30 -29 -29 -29 -29 -29 -28 -28 -28 -29 -29 -29 -29 -29 -28 -27 -28 -27 -24 -21 -18 -17 -17
-25 -24 -29 -33 -35 -35 -35 -35 -35 -35 -35 -34 -33 -32 -33 -33 -32 -32 -32 -31 -30 -29 -29 -29 -29 -29 -29 -29 -29 -29 -29 -29 -29 -29 -29 -29 -28 -27 -27 -27 -23 -20 -17 -17
-26 -27 -28 -32 -34 -35 -35 -35 -35 -35 -35 -35 -33 -31 -33 -33 -32 -31 -31 -30 -30 -29 -28 -29 -29 -29 -29 -29 -30 -29 -29 -29 -29 -30 -30 -29 -29 -28 -26 -27 -26 -22 -20 -17
-25 -27 -28 -31 -35 -35 -35 -35 -35 -35 -35 -34 -34 -31 -33 -32 -32 -31 -31 -30 -30 -29 -29 -29 -29 -29 -29 -29 -29 -29 -29 -29 -29 -29 -30 -30 -29 -29 -27 -27 -27 -24 -22 -19
-26 -28 -29 -29 -34 -35 -35 -35 -35 -35 -35 -34 -34 -33 -33 -32 -32 -31 -31 -30 -30 -29 -29 -28 -29 -29 -28 -28 -29 -29 -29 -29 -29 -30 -30 -30 -30 -29 -28 -26 -27 -26 -23 -21
-28 -30 -31 -32 -34 -35 -35 -35 -35 -35 -33 -33 -33 -32 -32 -32 -31 -31 -31 -30 -30 -29 -29 -28 -28 -28 -29 -29 -29 -28 -29 -29 -29 -30 -31 -31 -30 -29 -29 -27 -27 -27 -25 -22
-30 -31 -32 -33 -34 -35 -35 -35 -35 -34 -34 -33 -33 -33 -32 -32 -31 -31 -31 -30 -29 -29 -29 -29 -28 -28 -28 -28 -28 -28 -28 -28 -29 -30 -31 -31 -30 -29 -29 -27 -27 -27 -26 -22
-31 -32 -33 -34 -34 -34 -34 -34 -34 -33 -33 -33 -33 -33 -32 -31 -31 -31 -31 -30 -30 -29 -29 -29 -28 -28 -28 -28 -27 -27 -27 -27 -28 -30 -30 -30 -29 -28 -28 -27 -27 -27 -25 -22
-32 -33 -34 -34 -34 -34 -34 -34 -34 -33 -33 -33 -33 -32 -32 -32 -31 -31 -31 -31 -30 -29 -29 -28 -28 -27 -28 -28 -27 -27 -27 -27 -27 -28 -29 -28 -27 -27 -27 -27 -27 -26 -24 -24
-33 -34 -34 -34 -34 -34 -34 -34 -34 -33 -33 -33 -33 -32 -32 -32 -31 -31 -31 -31 -30 -30 -29 -29 -28 -28 -28 -27 -27 -27 -26 -25 -25 -26 -25 -25 -25 -25 -26 -26 -26 -24 -24 -24
-34 -34 -34 -34 -34 -34 -34 -34 -34 -33 -33 -33 -32 -32 -32 -32 -31 -31 -31 -31 -30 -30 -29 -29 -28 -28 -28 -27 -27 -27 -26 -25 -24 -25 -24 -24 -24 -24 -24 -24 -24 -23 -23 -23
-34 -35 -34 -34 -34 -34 -34 -34 -34 -34 -33 -33 -32 -32 -32 -32 -31 -31 -31 -31 -30 -30 -30 -29 -28 -28 -28 -28 -27 -27 -26 -25 -25 -24 -24 -24 -23 -23 -23 -24 -23 -22 -22 -22
-35 -35 -35 -35 -34 -34 -34 -33 -33 -33 -33 -33 -33 -32 -32 -32 -31 -31 -31 -31 -31 -30 -30 -29 -28 -28 -28 -28 -27 -27 -27 -26 -25 -24 -24 -23 -23 -23 -22 -22 -22 -21 -20 -20
-34 -35 -35 -35 -35 -34 -34 -34 -34 -34 -33 -33 -33 -33 -32 -32 -32 -31 -31 -31 -31 -31 -30 -30 -29 -28 -28 -28 -28 -27 -27 -26 -26 -25 -24 -24 -23 -23 -22 -21 -21 -21 -21 -20
-35 -35 -35 -35 -35 -35 -34 -34 -34 -33 -33 -33 -33 -33 -32 -32 -32 -31 -31 -31 -31 -31 -31 -31 -30 -30 -29 -28 -28 -28 -27 -27 -27 -26 -25 -25 -25 -23 -23 -22 -22 -22 -21 -21
-35 -36 -36 -35 -35 -35 -34 -34 -34 -34 -33 -33 -33 -33 -33 -32 -32 -32 -31 -31 -31 -31 -31 -31 -31 -31 -30 -30 -29 -29 -28 -28 -27 -27 -27 -26 -25 -24 -24 -23 -23 -22 -22 -22
-36 -36 -36 -35 -35 -35 -34 -34 -33 -34 -33 -33 -33 -33 -33 -33 -32 -32 -32 -32 -31 -31 -31 -30 -31 -30 -30 -30 -30 -30 -30 -29 -28 -28 -27 -27 -27 -26 -25 -25 -24 -24 -24 -24
-36 -35 -35 -35 -35 -35 -34 -34 -33 -33 -33 -33 -33 -33 -32 -32 -32 -32 -32 -32 -32 -32 -31 -31 -31 -31 -31 -30 -30 -30 -30 -30 -29 -29 -29 -28 -28 -27 -27 -26 -26 -25 -26 -25
Height
5552 5536 5520 5498 5486 5475 5460 5448 5437 5434 5434 5428 5423 5419 5423 5422 5421 5419 5416 5414 5411 5410 5410 5402 5403 5411 5414 5413 5416 5421 5427 5436 5446 5459 5475 5491 5507 5521 5539 5555 5569 5581 5593 5605
5539 5527 5507 5490 5473 5462 5445 5434 5426 5421 5420 5415 5412 5408 5408 5411 5409 5408 5404 5403 5399 5397 5394 5395 5398 5398 5398 5400 5401 5404 5409 5416 5424 5434 5448 5463 5481 5496 5514 5532 5547 5561 5574 5587
5517 5505 5489 5473 5458 5444 5433 5424 5416 5410 5407 5407 5402 5395 5399 5402 5398 5397 5397 5395 5393 5390 5388 5388 5388 5388 5387 5387 5389 5391 5393 5397 5404 5410 5420 5435 5452 5472 5490 5508 5526 5541 5554 5568
5506 5491 5472 5454 5440 5429 5418 5416 5408 5402 5399 5395 5398 5384 5394 5392 5390 5389 5387 5388 5386 5384 5382 5380 5379 5378 5376 5375 5375 5376 5378 5381 5386 5389 5397 5410 5424 5443 5466 5483 5501 5518 5533 5549
5492 5466 5456 5440 5428 5421 5410 5406 5400 5396 5393 5389 5394 5385 5386 5383 5383 5382 5381 5380 5379 5377 5373 5370 5368 5367 5365 5363 5362 5363 5364 5366 5369 5372 5376 5383 5399 5418 5439 5457 5475 5495 5512 5528
5474 5455 5439 5424 5417 5414 5405 5399 5396 5391 5388 5385 5387 5384 5380 5382 5380 5378 5376 5373 5372 5368 5365 5361 5358 5356 5355 5352 5349 5349 5351 5353 5355 5358 5361 5365 5376 5391 5407 5430 5450 5470 5490 5506
5471 5451 5434 5419 5408 5408 5399 5395 5387 5386 5384 5383 5383 5379 5378 5377 5374 5373 5370 5368 5365 5361 5357 5354 5350 5347 5344 5340 5335 5332 5334 5337 5338 5342 5346 5350 5356 5365 5378 5400 5423 5446 5466 5486
5440 5428 5418 5409 5402 5394 5392 5392 5388 5381 5379 5376 5378 5376 5376 5371 5369 5367 5364 5361 5358 5354 5349 5344 5339 5335 5330 5327 5324 5321 5319 5319 5321 5323 5328 5333 5339 5344 5355 5372 5394 5418 5442 5465
5426 5417 5408 5401 5395 5392 5388 5387 5386 5380 5379 5373 5371 5371 5372 5367 5364 5360 5358 5354 5351 5346 5341 5335 5329 5322 5316 5311 5307 5306 5306 5307 5306 5307 5309 5314 5320 5326 5336 5349 5366 5390 5416 5440
5418 5404 5402 5391 5388 5389 5384 5384 5381 5379 5374 5369 5368 5366 5364 5363 5359 5356 5353 5348 5344 5339 5333 5327 5320 5312 5304 5296 5291 5289 5288 5289 5289 5287 5288 5293 5297 5306 5317 5327 5342 5365 5391 5415
5412 5396 5391 5383 5381 5380 5380 5379 5377 5375 5373 5368 5361 5363 5361 5358 5353 5350 5346 5341 5335 5330 5324 5319 5312 5304 5296 5288 5281 5278 5275 5271 5268 5264 5263 5266 5276 5283 5294 5306 5321 5340 5366 5393
5406 5391 5376 5374 5375 5374 5375 5374 5373 5371 5370 5369 5364 5360 5358 5353 5350 5345 5341 5336 5330 5325 5319 5312 5303 5297 5289 5281 5274 5268 5262 5253 5247 5245 5243 5247 5252 5261 5270 5287 5304 5322 5344 5366
5396 5384 5370 5367 5365 5367 5369 5370 5369 5367 5366 5364 5360 5357 5354 5351 5348 5343 5337 5333 5327 5321 5314 5306 5298 5290 5281 5273 5265 5255 5246 5238 5232 5228 5224 5225 5233 5242 5254 5271 5290 5307 5330 5347
5389 5381 5368 5361 5359 5360 5360 5362 5365 5363 5361 5360 5360 5352 5352 5349 5346 5342 5337 5331 5325 5318 5310 5302 5293 5284 5274 5264 5254 5246 5236 5223 5218 5213 5207 5207 5215 5228 5242 5260 5278 5294 5314 5332
5383 5376 5366 5358 5356 5357 5356 5357 5360 5360 5360 5356 5356 5353 5350 5347 5344 5340 5334 5329 5323 5317 5309 5300 5291 5283 5273 5260 5252 5241 5230 5220 5211 5203 5198 5198 5204 5218 5234 5250 5269 5285 5298 5322
5378 5372 5364 5359 5357 5357 5358 5358 5359 5358 5357 5355 5353 5351 5348 5345 5342 5338 5333 5328 5323 5317 5309 5300 5291 5283 5275 5264 5253 5241 5231 5220 5212 5200 5197 5197 5203 5219 5234 5250 5266 5281 5298 5320
5376 5371 5366 5363 5360 5360 5361 5358 5358 5357 5356 5354 5351 5349 5347 5345 5341 5337 5333 5329 5324 5317 5310 5302 5294 5286 5278 5268 5259 5247 5237 5231 5219 5213 5207 5206 5213 5224 5238 5251 5266 5282 5298 5324
5373 5370 5368 5366 5363 5362 5360 5358 5358 5357 5355 5352 5350 5348 5346 5343 5340 5337 5334 5330 5325 5320 5313 5306 5298 5290 5283 5274 5268 5259 5247 5242 5235 5232 5228 5226 5228 5234 5240 5252 5267 5288 5307 5326
5370 5368 5366 5365 5363 5362 5359 5357 5356 5356 5354 5351 5349 5347 5345 5342 5339 5337 5334 5331 5327 5322 5316 5310 5302 5295 5289 5283 5277 5272 5265 5258 5251 5248 5248 5250 5249 5250 5259 5274 5286 5301 5319 5338
5367 5365 5364 5362 5361 5359 5357 5355 5354 5353 5351 5349 5347 5345 5344 5341 5339 5337 5335 5332 5328 5324 5319 5315 5308 5300 5295 5292 5288 5282 5279 5274 5270 5264 5265 5267 5267 5272 5283 5291 5305 5316 5336 5348
5364 5361 5360 5359 5358 5357 5354 5352 5352 5351 5352 5347 5346 5344 5342 5340 5338 5336 5335 5333 5330 5326 5322 5318 5314 5308 5302 5298 5296 5292 5289 5287 5286 5284 5284 5288 5292 5294 5301 5307 5321 5329 5343 5357
5361 5358 5356 5354 5354 5354 5351 5351 5350 5349 5346 5344 5343 5343 5341 5339 5337 5335 5334 5333 5331 5328 5325 5320 5318 5314 5309 5304 5300 5300 5299 5296 5297 5296 5298 5300 5303 5306 5309 5316 5325 5333 5342 5356
5354 5353 5352 5351 5352 5349 5348 5347 5346 5344 5343 5341 5339 5339 5339 5337 5336 5334 5332 5333 5331 5330 5328 5325 5320 5319 5316 5312 5308 5306 5306 5306 5303 5303 5303 5306 5313 5314 5319 5322 5329 5337 5346 5354
5348 5345 5344 5345 5347 5345 5344 5343 5342 5341 5339 5338 5335 5335 5336 5336 5334 5333 5331 5330 5331 5330 5329 5328 5325 5321 5320 5318 5315 5311 5309 5311 5310 5312 5313 5314 5318 5321 5325 5330 5334 5340 5349 5359
5343 5340 5340 5340 5341 5342 5341 5339 5338 5337 5336 5335 5333 5332 5332 5332 5332 5331 5330 5328 5329 5329 5328 5328 5327 5326 5323 5323 5321 5318 5315 5312 5314 5316 5318 5320 5322 5326 5330 5335 5339 5344 5349 5355
5337 5335 5335 5336 5336 5337 5337 5334 5333 5333 5332 5332 5331 5330 5329 5329 5328 5328 5327 5326 5325 5327 5327 5327 5327 5327 5326 5324 5324 5324 5322 5320 5319 5320 5323 5325 5327 5332 5335 5338 5343 5347 5352 5357
Wind_Speed
78 81 78 85 78 77 70 68 68 65 58 52 52 55 50 49 41 43 47 44 47 50 50 53 60 56 55 61 68 73 78 82 88 95 102 103 102 102 101 98 94 92 91 90
78 78 81 77 74 70 62 61 53 49 43 41 46 45 45 40 40 38 30 24 27 30 36 45 46 48 47 44 50 63 72 78 82 89 97 104 105 105 104 103 100 97 94 92
82 82 80 80 75 63 52 50 50 52 49 42 41 43 36 24 34 30 27 26 28 29 30 35 41 43 44 45 45 44 48 64 77 82 90 99 106 107 107 106 105 102 99 96
82 82 83 82 71 46 47 46 52 45 43 43 31 44 26 29 25 19 29 25 27 31 35 40 44 48 50 51 53 52 50 48 51 63 82 91 102 109 108 108 108 107 105 101
81 86 84 77 55 33 44 42 35 37 37 41 32 38 34 15 9 17 23 27 29 29 33 37 40 39 38 40 40 41 45 47 48 51 62 81 93 104 109 111 111 111 109 106
85 84 75 66 50 33 33 37 31 28 26 26 19 17 26 16 19 22 26 30 26 29 33 35 37 39 41 45 50 49 46 45 47 50 56 65 81 95 108 112 114 113 113 110
82 82 72 56 46 33 31 36 35 27 20 25 17 26 29 26 16 19 24 25 28 31 32 34 37 39 39 38 38 43 53 52 52 54 53 56 65 79 97 109 114 116 115 113
86 86 71 53 35 38 21 26 26 29 29 29 19 21 12 22 24 20 21 24 26 27 29 30 34 40 44 44 41 37 36 42 54 61 60 59 62 69 83 101 113 118 118 116
85 80 64 46 37 24 24 24 22 24 22 24 22 19 13 21 24 22 24 26 23 27 29 32 37 39 40 42 42 44 40 39 43 46 47 61 68 68 72 87 104 117 121 119
79 79 60 42 33 13 18 20 20 18 24 29 26 22 15 15 21 22 25 25 26 26 29 33 35 39 42 44 39 43 42 46 52 58 61 58 57 73 70 75 92 111 120 121
74 71 62 43 19 18 17 19 20 21 21 25 30 10 19 22 24 24 26 27 30 30 32 34 34 24 29 27 26 25 34 40 40 44 47 57 60 62 75 76 80 97 114 122
71 65 59 45 29 21 15 15 17 20 22 24 30 14 25 21 24 30 28 30 31 31 32 33 33 29 28 33 34 35 38 44 45 46 47 47 54 60 70 78 77 84 98 118
70 57 52 42 19 12 14 18 19 22 25 19 29 24 19 22 26 27 29 29 29 31 29 32 29 31 34 40 37 31 31 26 28 43 43 49 51 56 60 76 75 76 86 105
62 46 44 34 12 16 18 20 27 31 18 19 15 21 20 20 23 23 25 27 29 28 28 27 30 33 36 40 33 26 34 35 33 31 33 38 52 56 55 72 72 68 74 92
49 42 33 17 11 13 11 10 15 18 16 17 17 17 18 19 21 21 24 27 29 29 27 25 24 30 43 36 32 28 32 30 19 18 18 23 37 51 52 65 67 61 66 82
42 33 20 11 9 9 6 3 9 9 8 14 15 15 17 17 20 21 22 28 32 31 27 22 28 33 36 34 32 30 22 17 17 7 7 17 28 42 48 52 58 54 56 73
34 22 11 7 7 9 2 5 6 9 12 12 12 13 14 16 17 19 21 23 29 30 27 29 27 30 33 25 32 28 31 23 23 23 14 16 26 34 38 43 46 43 60 51
29 16 8 7 6 5 6 8 7 8 10 10 12 12 14 15 15 17 18 19 21 25 25 26 27 26 30 22 23 28 40 29 21 22 37 40 35 31 36 34 43 43 48 57
24 16 13 10 7 6 8 8 11 10 11 12 13 12 14 15 14 14 16 16 16 21 21 23 26 25 25 30 31 26 25 33 26 26 37 32 34 27 31 45 30 53 48 57
26 21 17 14 10 9 9 10 11 11 16 11 14 14 12 14 12 11 13 15 14 18 17 16 19 26 24 21 29 30 18 13 29 33 31 25 25 23 27 41 46 41 51 38
28 22 17 17 15 12 12 14 12 11 13 17 12 13 13 14 13 12 10 12 13 16 17 13 16 16 20 19 15 26 32 18 19 31 31 24 24 28 30 39 42 40 48 44
24 26 22 19 15 17 16 15 16 13 17 18 16 13 13 13 14 14 10 10 11 11 15 17 17 17 18 22 18 16 22 24 26 24 25 33 26 30 43 48 44 47 55 61
25 27 25 24 17 17 16 16 17 15 13 17 18 16 13 13 13 15 14 9 9 7 8 12 16 20 15 18 19 17 18 21 18 22 23 22 22 36 40 42 47 49 48 51
22 26 27 22 17 21 20 18 16 16 14 14 14 14 15 14 13 15 17 13 10 9 5 4 8 13 18 17 17 16 15 16 17 18 18 19 23 28 25 33 38 38 47 44
20 25 21 20 19 18 19 18 14 16 12 12 9 9 12 15 16 15 15 19 13 11 10 4 3 5 8 11 13 16 18 17 16 14 13 11 13 16 21 22 18 17 27 26
25 23 22 19 18 15 15 20 15 16 15 12 7 6 7 10 12 18 19 17 20 15 13 12 8 6 3 3 5 8 11 13 13 14 14 12 12 8 8 12 14 16 9 11
Wind_Direction
319 318 320 314 314 313 310 302 295 293 294 289 287 285 289 285 287 288 294 289 278 271 264 257 259 263 261 259 252 246 243 238 234 230 231 228 227 225 224 222 222 224 225 223
320 322 317 316 314 314 305 296 293 296 300 293 295 293 288 289 293 297 280 285 286 282 259 258 266 269 268 265 260 252 246 242 239 232 228 229 227 225 224 223 222 222 223 225
321 322 320 318 318 319 302 292 295 296 300 297 300 292 299 300 297 281 275 278 272 272 264 261 263 265 268 270 268 263 255 249 242 240 231 226 227 225 223 223 221 221 222 223
324 323 322 322 323 314 296 294 297 302 297 304 303 302 307 304 290 273 265 271 277 275 270 265 263 266 270 271 270 266 262 254 245 244 238 230 224 224 224 222 221 221 221 221
327 324 325 325 325 312 295 304 305 300 297 293 302 301 313 324 288 274 276 284 288 279 275 273 272 272 273 272 269 265 260 255 250 246 239 236 227 222 222 222 222 220 221 221
327 327 328 325 322 308 303 311 311 306 305 303 326 303 308 307 284 253 272 284 287 284 284 283 281 279 278 279 276 268 258 252 250 246 241 240 236 224 220 220 221 220 220 220
328 328 327 322 316 311 294 308 314 317 307 295 306 285 302 312 289 289 287 291 294 291 292 289 283 281 279 276 282 272 263 258 251 246 243 239 236 233 224 217 218 220 218 219
329 330 329 325 318 314 290 301 313 314 316 312 304 300 323 310 312 307 302 301 298 300 301 299 297 294 288 287 271 272 272 263 255 251 244 237 235 233 231 221 214 216 218 217
330 330 327 318 313 304 288 298 305 299 311 312 312 318 302 295 297 307 318 309 309 312 312 311 306 300 292 290 276 263 262 263 258 260 252 244 236 232 231 229 219 211 216 216
331 328 329 319 309 302 306 296 300 317 308 305 306 314 341 307 297 308 316 317 321 319 321 316 313 309 302 299 289 268 269 264 261 257 256 250 242 232 227 226 224 213 211 215
330 327 332 321 303 286 269 290 292 296 302 309 311 342 333 322 309 324 328 333 331 332 326 318 314 315 329 323 304 275 269 264 265 262 256 242 237 235 226 224 225 220 210 211
330 331 328 325 306 287 286 299 302 287 295 283 299 334 331 318 322 330 332 337 334 333 328 321 314 304 308 313 311 284 289 280 274 257 258 243 230 230 224 221 220 221 216 208
333 335 324 327 298 233 297 298 276 284 285 290 303 319 329 325 328 330 335 338 337 335 328 327 319 316 309 308 312 298 292 290 264 258 264 242 228 221 223 215 216 218 216 214
332 333 319 325 318 243 244 244 270 282 278 306 340 314 323 322 327 332 338 343 344 340 337 329 326 324 324 324 321 315 322 306 284 286 261 242 225 213 216 209 211 214 212 213
332 334 330 323 340 316 323 312 251 260 297 299 314 317 321 320 329 341 344 350 353 351 350 343 335 336 358 353 352 339 332 329 341 304 238 219 216 204 205 203 206 211 209 207
335 338 334 347 9 23 46 298 258 269 292 303 304 324 322 326 337 347 349 355 351 356 4 7 4 355 353 351 346 0 4 3 357 320 215 181 187 193 196 198 204 209 205 197
332 342 356 35 25 353 284 262 291 299 300 297 299 321 323 326 338 349 352 350 349 359 11 24 9 12 6 354 0 358 355 64 61 81 107 152 169 182 191 199 205 204 188 176
327 333 333 332 328 287 286 276 283 300 312 323 304 315 318 328 344 350 348 346 352 3 10 17 10 16 15 4 3 20 41 23 64 74 84 93 89 110 131 163 164 154 161 176
311 306 292 292 298 289 289 283 279 293 304 316 326 312 315 324 337 349 350 352 358 12 17 18 19 24 28 32 23 27 40 18 87 76 87 95 93 91 106 130 145 142 154 161
293 284 286 281 286 270 275 287 286 288 298 305 319 317 304 311 324 335 352 354 5 26 26 27 27 22 26 28 42 39 43 65 54 88 87 74 94 105 121 136 139 143 159 170
282 275 269 273 275 288 280 273 281 270 267 283 297 316 306 301 309 321 338 347 358 21 37 42 53 40 30 29 28 40 54 66 89 86 98 105 101 144 152 158 151 169 181 179
285 266 258 269 272 275 270 279 292 285 280 287 280 292 312 301 297 303 319 329 342 4 32 48 50 58 52 48 43 35 46 78 91 113 114 110 123 125 128 148 155 147 154 169
288 269 263 263 260 270 275 286 285 289 286 289 288 274 285 309 290 293 298 310 317 334 22 40 43 50 66 54 50 43 52 60 72 84 114 130 138 132 134 138 150 148 160 157
292 271 265 266 266 262 276 279 277 277 268 293 297 276 270 285 307 287 288 290 290 299 310 58 49 43 53 56 49 47 48 57 56 66 80 105 137 155 136 155 153 150 157 161
283 270 269 265 271 269 277 276 272 269 269 280 302 304 281 277 284 293 291 282 279 273 277 262 135 83 50 52 50 48 45 48 54 54 58 71 87 115 158 163 170 183 166 177
291 276 263 267 270 269 277 280 269 264 261 254 260 296 313 313 300 282 281 286 279 269 259 257 236 192 154 30 45 58 51 47 44 49 57 63 75 94 116 128 162 201 171 197